• In Germany
  • List of Countries
  • For 7 days
  • Water Temperature
  • Satellite Maps
  • Weather Map
  • Weather Widgets
  • user-avatar
    Login

    Hourly Weather Linz

    Today, 25 April, Tuesday

    Time Temperature Precipitation Wind Pressure Humidity
    00:00 +5°C° 0 mm 2 mps 729 mmHg 92%
    01:00 +5°C° 0 mm 2 mps 728 mmHg 90%
    02:00 +5°C° 0 mm 2 mps 728 mmHg 90%
    03:00 +5°C° 0 mm 2 mps 728 mmHg 90%
    04:00 +5°C° 0 mm 2 mps 728 mmHg 89%
    05:00 +6°C° 0 mm 2 mps 728 mmHg 86%
    06:00 +9°C° 0 mm 1 mps 727 mmHg 83%
    07:00 +10°C° 0 mm 1 mps 727 mmHg 80%
    08:00 +12°C° 0 mm 2 mps 727 mmHg 76%
    09:00 +14°C° 0 mm 2 mps 727 mmHg 72%
    10:00 +14°C° 0 mm 3 mps 727 mmHg 69%
    11:00 +16°C° 0.1 mm 3 mps 727 mmHg 69%
    12:00 +16°C° 0.1 mm 3 mps 727 mmHg 70%
    13:00 +15°C° 0.1 mm 4 mps 726 mmHg 71%
    14:00 +17°C° 0.2 mm 3 mps 726 mmHg 72%
    15:00 +17°C° 0.2 mm 2 mps 726 mmHg 73%
    16:00 +17°C° 0.2 mm 2 mps 725 mmHg 74%
    17:00 +15°C° 0.3 mm 2 mps 725 mmHg 81%
    18:00 +13°C° 0.3 mm 1 mps 725 mmHg 87%
    19:00 +11°C° 0.3 mm 1 mps 725 mmHg 94%
    20:00 +10°C° 1 mm 2 mps 725 mmHg 95%
    21:00 +9°C° 1 mm 2 mps 726 mmHg 96%
    22:00 +9°C° 1 mm 2 mps 726 mmHg 96%
    23:00 +9°C° 0.6 mm 2 mps 726 mmHg 96%

    Tomorrow, 26 April, Wednesday

    Time Temperature Precipitation Wind Pressure Humidity
    00:00 +8°C° 0.6 mm 2 mps 726 mmHg 96%
    01:00 +9°C° 0.6 mm 1 mps 726 mmHg 96%
    02:00 +9°C° 0.2 mm 1 mps 726 mmHg 97%
    03:00 +8°C° 0.2 mm 1 mps 726 mmHg 97%
    04:00 +7°C° 0.2 mm 2 mps 726 mmHg 97%
    05:00 +7°C° 0.3 mm 2 mps 726 mmHg 96%
    06:00 +7°C° 0.3 mm 2 mps 726 mmHg 96%
    07:00 +7°C° 0.3 mm 2 mps 726 mmHg 95%
    08:00 +7°C° 0.3 mm 2 mps 727 mmHg 94%
    09:00 +7°C° 0.3 mm 2 mps 727 mmHg 94%
    10:00 +7°C° 0.3 mm 2 mps 727 mmHg 93%
    11:00 +7°C° 1 mm 2 mps 727 mmHg 94%
    12:00 +7°C° 1 mm 2 mps 727 mmHg 94%
    13:00 +7°C° 1 mm 2 mps 727 mmHg 94%
    14:00 +7°C° 1.1 mm 2 mps 727 mmHg 95%
    15:00 +7°C° 1.1 mm 2 mps 727 mmHg 95%
    16:00 +6°C° 1.1 mm 2 mps 728 mmHg 95%
    17:00 +6°C° 0.9 mm 2 mps 728 mmHg 95%
    18:00 +6°C° 0.9 mm 2 mps 728 mmHg 96%
    19:00 +6°C° 0.9 mm 1 mps 728 mmHg 97%
    20:00 +6°C° 0.9 mm 1 mps 729 mmHg 97%
    21:00 +6°C° 0.9 mm 1 mps 729 mmHg 97%
    22:00 +6°C° 0.9 mm 1 mps 729 mmHg 97%
    23:00 +6°C° 1.1 mm 1 mps 729 mmHg 97%

    Day after tomorrow, 27 April, Thursday

    Time Temperature Precipitation Wind Pressure Humidity
    00:00 +5°C° 1.1 mm 1 mps 729 mmHg 97%
    01:00 +5°C° 1.1 mm 1 mps 729 mmHg 97%
    02:00 +5°C° 0.7 mm 1 mps 729 mmHg 97%
    03:00 +5°C° 0.7 mm 1 mps 729 mmHg 97%
    04:00 +5°C° 0.7 mm 1 mps 729 mmHg 97%
    05:00 +5°C° 0.5 mm 1 mps 729 mmHg 97%
    06:00 +5°C° 0.5 mm 1 mps 729 mmHg 96%
    07:00 +6°C° 0.5 mm 1 mps 729 mmHg 95%
    08:00 +5°C° 0.5 mm 2 mps 729 mmHg 94%
    09:00 +5°C° 0.5 mm 2 mps 729 mmHg 93%
    10:00 +6°C° 0.5 mm 2 mps 729 mmHg 93%
    11:00 +6°C° 0.6 mm 2 mps 729 mmHg 93%
    12:00 +5°C° 0.6 mm 3 mps 729 mmHg 93%
    13:00 +5°C° 0.6 mm 3 mps 729 mmHg 93%
    14:00 +5°C° 0.7 mm 3 mps 729 mmHg 93%
    15:00 +6°C° 0.7 mm 2 mps 729 mmHg 94%
    16:00 +6°C° 0.7 mm 2 mps 728 mmHg 94%
    17:00 +6°C° 0.9 mm 2 mps 728 mmHg 95%
    18:00 +6°C° 0.9 mm 2 mps 728 mmHg 96%
    19:00 +5°C° 0.9 mm 2 mps 728 mmHg 97%
    20:00 +5°C° 1.4 mm 2 mps 728 mmHg 97%
    21:00 +5°C° 1.4 mm 2 mps 728 mmHg 97%
    22:00 +5°C° 1.4 mm 2 mps 728 mmHg 97%
    23:00 +5°C° 1 mm 2 mps 728 mmHg 97%

    28 April, Friday

    Time Temperature Precipitation Wind Pressure Humidity
    00:00 +5°C° 1 mm 2 mps 728 mmHg 97%
    01:00 +5°C° 1 mm 2 mps 727 mmHg 97%
    02:00 +4°C° 0.4 mm 2 mps 727 mmHg 97%
    03:00 +4°C° 0.4 mm 2 mps 727 mmHg 97%
    04:00 +4°C° 0.4 mm 2 mps 726 mmHg 97%
    05:00 +4°C° 0.6 mm 2 mps 727 mmHg 97%
    06:00 +5°C° 0.6 mm 2 mps 727 mmHg 96%
    07:00 +5°C° 0.6 mm 2 mps 727 mmHg 96%
    08:00 +5°C° 0.8 mm 2 mps 727 mmHg 95%
    09:00 +6°C° 0.8 mm 2 mps 727 mmHg 94%
    10:00 +6°C° 0.8 mm 2 mps 727 mmHg 93%
    11:00 +7°C° 0.5 mm 2 mps 727 mmHg 93%
    12:00 +7°C° 0.5 mm 2 mps 727 mmHg 93%
    13:00 +7°C° 0.5 mm 2 mps 728 mmHg 92%
    14:00 +7°C° 0.6 mm 3 mps 728 mmHg 93%
    15:00 +7°C° 0.6 mm 3 mps 728 mmHg 93%
    16:00 +7°C° 0.6 mm 3 mps 729 mmHg 93%
    17:00 +7°C° 0.4 mm 3 mps 729 mmHg 94%
    18:00 +7°C° 0.4 mm 2 mps 730 mmHg 95%
    19:00 +6°C° 0.4 mm 2 mps 730 mmHg 96%
    20:00 +5°C° 0.2 mm 2 mps 731 mmHg 96%
    21:00 +5°C° 0.2 mm 2 mps 732 mmHg 97%
    22:00 +4°C° 0.2 mm 2 mps 732 mmHg 97%
    23:00 +4°C° 0.1 mm 2 mps 732 mmHg 97%

    29 April, Saturday

    Time Temperature Precipitation Wind Pressure Humidity
    00:00 +3°C° 0.1 mm 2 mps 733 mmHg 98%
    01:00 +3°C° 0.1 mm 2 mps 733 mmHg 98%
    02:00 +3°C° 0 mm 2 mps 733 mmHg 98%
    03:00 +4°C° 0 mm 1 mps 733 mmHg 98%
    04:00 +5°C° 0 mm 1 mps 733 mmHg 98%
    05:00 +4°C° 0 mm 2 mps 734 mmHg 97%
    06:00 +4°C° 0 mm 2 mps 734 mmHg 96%
    07:00 +5°C° 0 mm 2 mps 734 mmHg 95%
    08:00 +6°C° 0 mm 2 mps 734 mmHg 91%
    09:00 +7°C° 0 mm 2 mps 734 mmHg 87%
    10:00 +8°C° 0 mm 2 mps 734 mmHg 83%
    11:00 +9°C° 0 mm 2 mps 734 mmHg 78%
    12:00 +11°C° 0 mm 1 mps 733 mmHg 73%
    13:00 +13°C° 0 mm 1 mps 733 mmHg 68%
    14:00 +13°C° 0 mm 1 mps 733 mmHg 67%
    15:00 +13°C° 0 mm 1 mps 733 mmHg 66%
    16:00 +13°C° 0 mm 1 mps 732 mmHg 66%
    17:00 +11°C° 0 mm 1 mps 732 mmHg 74%
    18:00 +9°C° 0 mm 1 mps 732 mmHg 82%
    19:00 +7°C° 0 mm 1 mps 732 mmHg 90%
    20:00 +6°C° 0 mm 1 mps 732 mmHg 90%
    21:00 +5°C° 0 mm 1 mps 733 mmHg 90%
    22:00 +5°C° 0 mm 1 mps 733 mmHg 91%
    23:00 +4°C° 0 mm 1 mps 733 mmHg 91%

    30 April, Sunday

    Time Temperature Precipitation Wind Pressure Humidity
    00:00 +4°C° 0 mm 1 mps 733 mmHg 91%
    01:00 +4°C° 0 mm 1 mps 733 mmHg 91%
    02:00 +4°C° 0 mm 1 mps 732 mmHg 91%
    03:00 +3°C° 0 mm 1 mps 732 mmHg 91%
    04:00 +3°C° 0 mm 1 mps 732 mmHg 91%
    05:00 +5°C° 0 mm 1 mps 732 mmHg 87%
    06:00 +7°C° 0 mm 1 mps 732 mmHg 84%
    07:00 +9°C° 0 mm 1 mps 732 mmHg 80%
    08:00 +10°C° 0 mm 2 mps 732 mmHg 75%
    09:00 +12°C° 0 mm 2 mps 731 mmHg 70%
    10:00 +13°C° 0 mm 3 mps 731 mmHg 66%
    11:00 +14°C° 0 mm 3 mps 731 mmHg 64%
    12:00 +16°C° 0 mm 3 mps 730 mmHg 61%
    13:00 +18°C° 0 mm 3 mps 730 mmHg 59%
    14:00 +18°C° 0 mm 3 mps 730 mmHg 60%
    15:00 +18°C° 0 mm 3 mps 729 mmHg 60%
    16:00 +18°C° 0 mm 3 mps 729 mmHg 60%
    17:00 +16°C° 0 mm 2 mps 729 mmHg 68%
    18:00 +14°C° 0 mm 2 mps 729 mmHg 77%
    19:00 +12°C° 0 mm 2 mps 729 mmHg 85%
    20:00 +9°C° 0 mm 2 mps 729 mmHg 87%
    21:00 +8°C° 0 mm 2 mps 729 mmHg 88%
    22:00 +7°C° 0 mm 2 mps 730 mmHg 90%
    23:00 +7°C° 0 mm 2 mps 729 mmHg 90%
    Show more